Weather History for Muskogee, OK

Change the Weather History Date:

Sunday, October 28, 2012

  Actual Average Record
Temperature  
Mean Temperature 42 °F -  
Max Temperature 57 °F 67 °F 84 °F (2004)
Min Temperature 28 °F 47 °F 27 °F (2008)
Degree Days  
Heating Degree Days 22    
Moisture  
Dew Point 30 °F    
Average Humidity 65    
Maximum Humidity 92    
Minimum Humidity 30    
Precipitation  
Precipitation 0.00 in - - ()
Sea Level Pressure  
Sea Level Pressure 30.29 in    
Wind  
Wind Speed 5 mph (North)    
Max Wind Speed 8 mph    
Max Gust Speed -    
Visibility 10 miles    
Events      
Averages and records for this station are not official NWS values.
T = Trace of Precipitation, MM = Missing Value Source: NWS Daily Summary

Daily Weather History Graph

Daily Weather History Graph

Search for Another Location

Airport:

Trip Planner

Search our weather history database for the weather conditions in past years. The results will help you decide how hot, cold, wet, or windy it might be!

Date:

Astronomy

Oct. 28, 2012 Rise Set
Actual Time 7:40 AM CDT 6:29 PM CDT
Civil Twilight 7:13 AM CDT 6:55 PM CDT
Nautical Twilight 6:43 AM CDT 7:25 PM CDT
Astronomical Twilight 6:14 AM CDT 7:55 PM CDT
Moon 5:47 PM CDT (10/28) 6:35 AM CDT (10/28)
Length of Visible Light 11h 42m
Length of Day
10h 49m
Waxing Gibbous, 99% of the Moon is Illuminated
Oct 28
Waxing Gibbous
Oct 29
Full
Nov 6
Last Quarter
Nov 13
New
Nov 20
First Quarter

Hourly Weather History & Observations

Time (CDT) Temp. Windchill Dew Point Humidity Pressure Visibility Wind Dir Wind Speed Gust Speed Precip Events Conditions
12:53 AM 36.0 °F 29.6 °F 30.0 °F 79% 30.30 in 10.0 mi NNW 8.1 mph - N/A   Clear
1:53 AM 34.0 °F 28.8 °F 30.0 °F 85% 30.30 in 10.0 mi NNW 5.8 mph - N/A   Clear
2:53 AM 34.0 °F 28.8 °F 30.0 °F 85% 30.29 in 10.0 mi North 5.8 mph - N/A   Clear
3:53 AM 33.1 °F - 28.9 °F 85% 30.27 in 10.0 mi Calm Calm - N/A   Clear
4:53 AM 33.1 °F 30.0 °F 30.0 °F 89% 30.27 in 10.0 mi NNW 3.5 mph - N/A   Clear
5:53 AM 32.0 °F 28.7 °F 28.9 °F 88% 30.30 in 10.0 mi NW 3.5 mph - N/A   Clear
6:53 AM 30.0 °F 26.5 °F 28.0 °F 92% 30.31 in 10.0 mi NW 3.5 mph - N/A   Clear
7:53 AM 28.9 °F 22.8 °F 27.0 °F 92% 30.33 in 8.0 mi NNW 5.8 mph - N/A   Clear
8:53 AM 34.0 °F 27.2 °F 32.0 °F 92% 30.34 in 8.0 mi North 8.1 mph - N/A   Clear
9:53 AM 41.0 °F 35.8 °F 34.0 °F 76% 30.34 in 10.0 mi North 8.1 mph - N/A   Clear
10:53 AM 46.0 °F 41.9 °F 34.0 °F 63% 30.35 in 10.0 mi NNE 8.1 mph - N/A   Clear
12:53 PM 52.0 °F - 28.9 °F 41% 30.32 in 10.0 mi Calm Calm - N/A   Clear
1:53 PM 54.0 °F - 28.9 °F 38% 30.30 in 10.0 mi Variable 5.8 mph - N/A   Clear
2:53 PM 55.9 °F - 27.0 °F 33% 30.26 in 10.0 mi Variable 3.5 mph - N/A   Clear
3:53 PM 57.0 °F - 26.1 °F 30% 30.25 in 10.0 mi Calm Calm - N/A   Clear
4:53 PM 57.9 °F - 27.0 °F 31% 30.23 in 10.0 mi NNE 6.9 mph - N/A   Clear
5:53 PM 55.0 °F - 28.0 °F 35% 30.24 in 10.0 mi NNW 3.5 mph - N/A   Clear
6:53 PM 50.0 °F - 28.0 °F 43% 30.25 in 10.0 mi NNW 3.5 mph - N/A   Clear
7:53 PM 46.9 °F - 30.0 °F 52% 30.25 in 10.0 mi North 4.6 mph - N/A   Clear
8:53 PM 44.1 °F 40.8 °F 30.9 °F 60% 30.26 in 10.0 mi NE 5.8 mph - N/A   Clear
9:53 PM 44.1 °F 41.5 °F 32.0 °F 63% 30.27 in 10.0 mi North 4.6 mph - N/A   Clear
10:53 PM 42.1 °F 39.2 °F 33.1 °F 70% 30.28 in 10.0 mi North 4.6 mph - N/A   Clear
11:53 PM 39.0 °F - 34.0 °F 82% 30.28 in 10.0 mi Calm Calm - N/A   Clear